Flag for Germany Weather past 2 weeks in Homberg (Efze), Hesse, Germany

Now
49 °F

Overcast.


Feels Like: 48 °F
Forecast: 51 / 79 °F
Wind: 3 mph from Northwest

Location: Fritzlar

Current Time: Aug 1, 2015 at 4:10:43 AM

Latest Report: Aug 1, 2015 at 3:00 AM


Visibility: 11 mi

Pressure: 30.05 "Hg

Humidity: 80%

Dew point: 43 °F

Location of Homberg (Efze)Location

Historic Weather in Homberg (Efze) — Graph

°F

Homberg (Efze) temperature yesterday

Maximum temperature yesterday: 66 °F (at 5:00 PM)
Minimum temperature yesterday: 45 °F (at 5:00 AM)
Average temperature yesterday: 57 °F

Past Weeks' High & Low Weather Summary

 TemperatureHumidityPressure
High93 °F (Jul 17, 5:00 PM)98% (Jul 20, 4:00 AM)30.15 "Hg (Jul 20, 4:00 AM)
Low45 °F (Jul 31, 5:00 AM)25% (Jul 17, 6:00 PM)29.58 "Hg (Jul 25, 10:00 AM)
Average65 °F69%29.88 "Hg
* Reported Jul 17 3:00 AM — Aug 1 3:00 AM, Homberg (Efze), Weather by CustomWeather, © 2015

Note: Actual official high and low records may vary slightly from our data, if they occured in-between our weather recording intervals... More about our weather records

Advertising

Homberg (Efze) weather history for previous 24 hours

 ConditionsComfort  
Time TempWeatherWind HumidityBarometerVisibility
3:00 AM
Sat, Aug 1
49 °FOvercast.3 mph80%30.05 "Hg11 mi
2:00 AM49 °FPassing clouds.2 mph78%30.06 "Hg11 mi
1:00 AM50 °FPassing clouds.3 mph79%30.07 "Hg11 mi
12:00 AM52 °FPassing clouds.1 mph72%30.06 "Hg11 mi
11:00 PM
Fri, Jul 31
51 °FPassing clouds.N/A71%30.06 "Hg11 mi
10:00 PM58 °FPassing clouds.2 mph56%30.05 "Hg16 mi
9:00 PM63 °FScattered clouds.2 mph43%30.04 "Hg19 mi
8:00 PM65 °FPassing clouds.3 mph36%30.04 "Hg25 mi
7:00 PM66 °FScattered clouds.2 mph36%30.05 "Hg25 mi
6:00 PM66 °FPartly sunny.2 mph35%30.06 "Hg25 mi
5:00 PM66 °FPassing clouds.2 mph37%30.06 "Hg25 mi
4:00 PM66 °FPartly sunny.3 mph37%30.07 "Hg25 mi
3:00 PM64 °FPartly sunny.3 mph40%30.10 "Hg25 mi
2:00 PM64 °FScattered clouds.2 mph42%30.11 "Hg25 mi
1:00 PM62 °FScattered clouds.2 mph47%30.14 "Hg25 mi
12:00 PM60 °FPartly sunny.N/A52%30.14 "Hg19 mi
11:00 AM57 °FScattered clouds.N/A62%30.14 "Hg19 mi
10:00 AM56 °FScattered clouds.3 mph66%30.15 "Hg16 mi
9:00 AM55 °FScattered clouds.2 mph68%30.15 "Hg16 mi
8:00 AM49 °FFog.2 mph87%30.15 "Hg16 mi
7:00 AM46 °FFog.2 mph95%30.14 "Hg16 mi
5:00 AM45 °FFog.1 mph97%30.13 "Hg9 mi
4:00 AM46 °FPassing clouds.1 mph96%30.12 "Hg9 mi
Weather by CustomWeather, © 2015

See weather overviewHow to use our weather pages